Location: Seasalter
(51.3333°N, 1.0167°E)
Time: 09:55:37
(UTC+00:00)

NOSS 3-4 (C) - Pass Details

Date: 26 September 2023
Orbit: 824 x 1389 km, 63.4° (Epoch: 23 November)

Event Time Altitude Azimuth Distance (km) Brightness Sun altitude
Exits shadow 02:10:59 62° 1° (N) 1,014 3.6 -31.4°
Drops below altitude 10° 02:16:32 10° 43° (NE) 2,731 6.7 -30.8°
Sets 02:19:18 0° 47° (NE) 3,766 7.8 -30.5°
